DW9493 Weather Reports


Display with metric or nautical units.
time (UTC)temp
F
wind
direction
speed
MPH
gust
MPH
rain 1hr
in
rain 24hr
in
rain mn
in
humidity
%
barometer
mb
20260509225545 63 51 1.0 3.0 0.00 0.00 0.00 27 1018.8
20260509224546 63 49 1.0 4.0 0.00 0.00 0.00 26 1019.0
20260509223547 63 108 1.0 4.0 0.00 0.00 0.00 27 1018.8
20260509222547 63 79 1.0 8.0 0.00 0.00 0.00 26 1018.8
20260509221546 63 79 2.0 5.0 0.00 0.00 0.00 26 1018.6
20260509220546 63 47 2.0 9.0 0.00 0.00 0.00 25 1018.7
20260509215545 62 215 2.0 6.0 0.00 0.00 0.00 26 1018.7
20260509214542 62 134 2.0 6.0 0.00 0.00 0.00 26 1018.8
20260509213540 63 29 3.0 10.0 0.00 0.00 0.00 26 1019.1
20260509212540 64 107 5.0 14.0 0.00 0.00 0.00 24 1018.7
20260509212014 65 126 3.0 10.0 0.00 0.00 0.00 24 1019.0
20260509210539 64 316 4.0 12.0 0.00 0.00 0.00 17 1018.8
20260509205538 65 325 7.0 19.0 0.00 0.00 0.00 18 1018.6
20260509204537 66 330 7.0 17.0 0.00 0.00 0.00 19 1018.4
20260509204022 65 342 4.0 8.0 0.00 0.00 0.00 18 1018.6
20260509202536 66 334 6.0 14.0 0.00 0.00 0.00 17 1018.6
20260509201536 66 273 5.0 14.0 0.00 0.00 0.00 19 1018.7
20260509200529 65 245 6.0 13.0 0.00 0.00 0.00 18 1018.7
20260509195524 64 335 5.0 14.0 0.00 0.00 0.00 18 1018.7
20260509195005 64 19 5.0 13.0 0.00 0.00 0.00 19 1018.7
20260509193522 65 309 5.0 17.0 0.00 0.00 0.00 20 1018.8
20260509192512 65 259 6.0 14.0 0.00 0.00 0.00 18 1019.0
20260509191512 65 314 7.0 21.0 0.00 0.00 0.00 19 1019.0
20260509190512 65 338 6.0 16.0 0.00 0.00 0.00 19 1019.0
20260509185508 65 305 6.0 15.0 0.00 0.00 0.00 18 1019.1
20260509184950 64 244 5.0 12.0 0.00 0.00 0.00 19 1019.2
20260509183943 64 224 5.0 12.0 0.00 0.00 0.00 20 1019.2
20260509182505 63 56 3.0 11.0 0.00 0.00 0.00 21 1019.1
20260509182422 63 262 4.0 9.0 0.00 0.00 0.00 23 1019.2
20260509180455 63 321 6.0 18.0 0.00 0.00 0.00 22 1019.3
20260509175456 63 322 6.0 15.0 0.00 0.00 0.00 23 1019.3
20260509174454 63 244 3.0 12.0 0.00 0.00 0.00 22 1019.3
20260509173454 62 318 7.0 17.0 0.00 0.00 0.00 24 1019.5
20260509172928 62 316 7.0 23.0 0.00 0.00 0.00 22 1019.6
20260509171929 62 255 9.0 26.0 0.00 0.00 0.00 22 1019.6
20260509170446 62 312 7.0 25.0 0.00 0.00 0.00 21 1019.5
20260509165446 62 315 13.0 27.0 0.00 0.00 0.00 21 1019.6
20260509164446 62 293 7.0 19.0 0.00 0.00 0.00 21 1019.3
20260509163444 62 325 5.0 13.0 0.00 0.00 0.00 25 1019.1
20260509162444 62 252 6.0 14.0 0.00 0.00 0.00 24 1019.2
20260509161440 62 238 2.0 8.0 0.00 0.00 0.00 25 1019.2
20260509160916 61 153 4.0 11.0 0.00 0.00 0.00 27 1019.3
20260509155433 62 340 1.0 7.0 0.00 0.00 0.00 27 1019.1
20260509154423 60 208 2.0 5.0 0.00 0.00 0.00 28 1019.2
20260509153423 60 140 1.0 3.0 0.00 0.00 0.00 29 1019.5
20260509153333 60 34 1.0 4.0 0.00 0.00 0.00 28 1019.3
20260509151418 58 134 1.0 6.0 0.00 0.00 0.00 31 1019.6
20260509150418 58 44 1.0 4.0 0.00 0.00 0.00 31 1019.6
20260509145421 57 113 1.0 3.0 0.00 0.00 0.00 31 1019.6
20260509144419 56 256 1.0 2.0 0.00 0.00 0.00 32 1019.8
20260509143830 54 210 1.0 3.0 0.00 0.00 0.00 34 1020.0
20260509142354 54 315 0.0 4.0 0.00 0.00 0.00 36 1019.8
20260509141354 49 316 0.0 2.0 0.00 0.00 0.00 47 1020.1
20260509140841 44 316 1.0 3.0 0.00 0.00 0.00 60 1020.1
20260509135350 41 281 0.0 3.0 0.00 0.00 0.00 66 1020.2
20260509134839 42 314 0.0 2.0 0.00 0.00 0.00 62 1020.1
20260509133347 43 312 0.0 1.0 0.00 0.00 0.00 56 1020.1
20260509132347 46 311 0.0 2.0 0.00 0.00 0.00 51 1020.0
20260509131342 48 308 1.0 3.0 0.00 0.00 0.00 46 1019.8
20260509130343 49 203 2.0 5.0 0.00 0.00 0.00 43 1019.6
20260509125337 49 225 3.0 6.0 0.00 0.00 0.00 42 1019.3
20260509124331 49 256 1.0 5.0 0.00 0.00 0.00 42 1019.2
20260509123328 50 113 3.0 12.0 0.00 0.00 0.00 42 1018.7
20260509122328 50 79 2.0 12.0 0.00 0.00 0.00 41 1018.7
20260509121329 51 274 9.0 16.0 0.00 0.00 0.00 40 1017.9
20260509120801 50 245 10.0 20.0 0.00 0.00 0.00 41 1017.4
20260509115327 50 245 10.0 18.0 0.00 0.00 0.00 42 1017.4
20260509114800 50 242 12.0 19.0 0.00 0.00 0.00 42 1017.6
20260509113322 51 231 13.0 23.0 0.00 0.00 0.00 41 1017.6
20260509112758 51 238 13.0 23.0 0.00 0.00 0.00 40 1017.4
20260509111753 50 231 10.0 18.0 0.00 0.00 0.00 42 1017.6
20260509110320 50 255 10.0 17.0 0.00 0.00 0.00 42 1017.6
20260509105321 50 257 8.0 14.0 0.00 0.00 0.00 43 1017.8
20260509104319 50 246 8.0 13.0 0.00 0.00 0.00 43 1017.9
20260509103318 50 250 8.0 12.0 0.00 0.00 0.00 44 1017.8
20260509102319 49 231 7.0 10.0 0.00 0.00 0.00 45 1017.9
20260509101318 49 219 6.0 9.0 0.00 0.00 0.00 45 1017.9
20260509100318 50 210 6.0 10.0 0.00 0.00 0.00 43 1017.9
20260509095318 50 215 4.0 7.0 0.00 0.00 0.00 44 1018.2
20260509094316 50 229 2.0 6.0 0.00 0.00 0.00 43 1018.2
20260509093317 50 267 2.0 4.0 0.00 0.00 0.00 46 1018.3
20260509092315 51 242 3.0 4.0 0.00 0.00 0.00 42 1018.2
20260509091315 51 242 3.0 4.0 0.00 0.00 0.00 42 1018.2
20260509090307 51 271 3.0 5.0 0.00 0.00 0.00 42 1018.1
20260509085306 51 247 2.0 4.0 0.00 0.00 0.00 43 1018.1
20260509084739 51 248 2.0 4.0 0.00 0.00 0.00 42 1017.9
20260509083244 51 266 2.0 3.0 0.00 0.00 0.00 42 1018.1
20260509082244 52 246 2.0 4.0 0.00 0.00 0.00 41 1018.2
20260509081238 52 246 3.0 7.0 0.00 0.00 0.00 42 1018.2
20260509080239 50 246 3.0 12.0 0.00 0.00 0.00 45 1018.2
20260509075238 45 262 0.0 1.0 0.00 0.00 0.00 58 1018.3
20260509074234 45 266 1.0 3.0 0.00 0.00 0.00 59 1018.3
20260509073232 44 249 1.0 4.0 0.00 0.00 0.00 62 1018.3
20260509072230 43 270 0.0 2.0 0.00 0.00 0.00 67 1018.3
20260509071228 43 263 0.0 2.0 0.00 0.00 0.00 67 1018.2
20260509070228 44 311 2.0 7.0 0.00 0.00 0.00 64 1018.3
20260509065222 43 328 1.0 6.0 0.00 0.00 0.00 68 1018.4
20260509064224 42 315 0.0 3.0 0.00 0.00 0.00 73 1018.4
20260509063222 42 253 0.0 2.0 0.00 0.00 0.00 73 1018.4
20260509062221 42 266 0.0 2.0 0.00 0.00 0.00 71 1018.6
20260509061219 42 319 0.0 2.0 0.00 0.00 0.00 75 1018.6
20260509060218 42 208 0.0 1.0 0.00 0.00 0.00 75 1018.7
20260509055216 42 312 1.0 3.0 0.00 0.00 0.00 78 1018.8
20260509054215 41 304 0.0 1.0 0.00 0.00 0.00 75 1019.0
20260509053217 42 274 0.0 1.0 0.00 0.00 0.00 77 1019.1
20260509052212 42 328 0.0 1.0 0.00 0.00 0.00 76 1019.2
20260509051213 43 205 0.0 1.0 0.00 0.00 0.00 76 1019.3
20260509050653 45 205 0.0 1.0 0.00 0.00 0.00 74 1019.5
20260509045211 46 205 1.0 3.0 0.00 0.00 0.00 73 1019.7
20260509044211 46 331 0.0 2.0 0.00 0.00 0.00 73 1019.7
20260509043208 47 321 0.0 3.0 0.00 0.00 0.00 71 1019.8
20260509042206 47 240 0.0 1.0 0.00 0.00 0.00 70 1020.2
20260509041208 49 240 0.0 1.0 0.00 0.00 0.00 67 1020.1
20260509040208 49 240 0.0 2.0 0.00 0.00 0.00 68 1020.0
20260509035645 50 242 0.0 3.0 0.00 0.00 0.00 67 1020.0
20260509034202 50 34 0.0 1.0 0.00 0.00 0.00 67 1020.2
20260509033633 50 34 0.0 0.0 0.00 0.00 0.00 66 1020.1
20260509032201 49 34 0.0 3.0 0.00 0.00 0.00 69 1020.1
20260509031158 49 319 0.0 1.0 0.00 0.00 0.00 72 1020.3
20260509030155 49 319 0.0 1.0 0.00 0.00 0.00 69 1020.1
20260509025639 49 319 0.0 1.0 0.00 0.00 0.00 68 1019.8
20260509024154 50 204 0.0 0.0 0.00 0.00 0.00 64 1019.7
20260509023153 51 203 0.0 1.0 0.00 0.00 0.00 62 1019.6
20260509022150 52 203 0.0 2.0 0.00 0.00 0.00 61 1019.6
20260509021634 52 130 0.0 1.0 0.00 0.00 0.00 62 1019.5
20260509020151 53 95 0.0 1.0 0.00 0.00 0.00 64 1019.3
20260509015150 53 94 0.0 1.0 0.00 0.00 0.00 63 1019.3
20260509014150 53 95 0.0 0.0 0.00 0.00 0.00 61 1019.2
20260509013148 54 95 0.0 1.0 0.00 0.00 0.00 59 1019.3
20260509012149 54 94 0.0 3.0 0.00 0.00 0.00 57 1019.2
20260509012041 56 96 0.0 2.0 0.00 0.00 0.00 54 1019.1
20260509011225 55 95 1.0 4.0 0.00 0.00 0.00 56 1019.1
20260509005628 56 116 1.0 5.0 0.00 0.00 0.00 53 1019.1
20260509005056 56 124 1.0 6.0 0.00 0.00 0.00 53 1019.1
20260509003143 56 101 0.0 3.0 0.00 0.00 0.00 52 1019.0
20260509002144 56 105 2.0 6.0 0.00 0.00 0.00 51 1019.0
20260509001143 57 84 1.0 5.0 0.00 0.00 0.00 52 1019.1
20260509000142 57 115 1.0 4.0 0.00 0.00 0.00 51 1019.2
20260508235142 57 122 1.0 4.0 0.00 0.00 0.00 50 1019.1
20260508234141 57 36 2.0 5.0 0.00 0.00 0.00 50 1019.0
20260508233632 57 72 2.0 7.0 0.00 0.00 0.00 50 1018.8
20260508233055 58 84 2.0 7.0 0.00 0.00 0.00 48 1019.0
20260508231138 58 78 2.0 6.0 0.00 0.00 0.00 49 1018.8
20260508230139 58 122 1.0 6.0 0.00 0.00 0.00 49 1018.8